OneWeb SL0187

operational
NORAD ID: 48221 Int'l Des: 2021-031 Owner: ONEWEBN Country: UK Constellation: oneweb
LEOCIRCULARPOLARONEWEB_TYPE

关于 OneWeb SL0187

正在加载描述...

实时位置

正在加载3D地球...

即将过境

高度历史

Altitude vs Time

uPlot chart will show altitude changes over time

两行轨道根数

1 48221U 21031M 25257.57540247 -.00000193 00000-0 -55568-3 0 9996
2 48221 87.9089 344.6085 0002049 107.2017 252.9338 13.14503651212054
Epoch: Sep 14, 2025 • Age: 21 hours

当前状态

高度 1220.9 km
速度 7.24 km/s
星下点 -38.10°S, 6.26°E
发射日期 Apr 25, 2021
运行时间 4.3 years
类型 internet

技术详情

分类 Payload
质量 148.00 kg
干质量 140.00 kg
总质量 148.00 kg
长度 1.30 m
直径 1.00 m
跨度 5.00 m
形状 Trapezoid+2 pan
制造商 ONEWUS
平台类型 ARROW
阶段状态 In Orbit
所有者/国家 ONEWEBN/UK

大型星座

Loading constellations...